Time,TemperatureF,DewpointF,PressureIn,WindDirection,WindDirectionDegrees,WindSpeedMPH,WindSpeedGustMPH,Humidity,HourlyPrecipIn,Conditions,Clouds,dailyrainin,SoftwareType,DateUTC
2013-08-15 00:37:00,65.5,57.7,29.94,NE,46,0.0,0.0,76,0.00,,FEW,0.00,WeatherDisplay:10.37,2013-08-15 05:37:00,
2013-08-15 01:23:00,57.8,54.6,29.97,ENE,67,1.2,1.2,89,0.00,,FEW,0.00,WeatherDisplay:10.37,2013-08-15 06:23:00,
2013-08-15 01:28:00,57.6,54.4,29.97,ENE,67,0.0,0.0,89,0.00,,FEW,0.00,WeatherDisplay:10.37,2013-08-15 06:28:00,
2013-08-15 01:33:00,57.6,54.4,29.97,ENE,67,0.0,0.0,89,0.00,,FEW,0.00,WeatherDisplay:10.37,2013-08-15 06:33:00,
2013-08-15 01:38:00,57.5,54.3,29.97,ENE,67,0.0,0.0,89,0.00,,FEW,0.00,WeatherDisplay:10.37,2013-08-15 06:38:00,
2013-08-15 01:43:00,57.3,54.1,29.97,ENE,68,0.0,0.0,89,0.00,,FEW,0.00,WeatherDisplay:10.37,2013-08-15 06:43:00,
2013-08-15 01:48:00,57.3,54.4,29.96,ENE,68,0.0,0.2,90,0.00,,FEW,0.00,WeatherDisplay:10.37,2013-08-15 06:48:00,
2013-08-15 01:53:00,57.3,54.1,29.96,ENE,68,0.0,0.0,89,0.00,,FEW,0.00,WeatherDisplay:10.37,2013-08-15 06:53:00,
2013-08-15 01:58:00,57.3,54.1,29.96,ENE,67,1.2,0.0,89,0.00,,FEW,0.00,WeatherDisplay:10.37,2013-08-15 06:58:00,
2013-08-15 02:03:00,57.5,54.3,29.95,East,85,0.0,0.0,89,0.00,,FEW,0.00,WeatherDisplay:10.37,2013-08-15 07:03:00,
2013-08-15 02:08:00,57.5,54.3,29.95,ESE,116,1.2,1.2,89,0.00,,FEW,0.00,WeatherDisplay:10.37,2013-08-15 07:08:00,
2013-08-15 02:13:00,57.5,54.3,29.95,ESE,116,0.0,0.0,89,0.00,,FEW,0.00,WeatherDisplay:10.37,2013-08-15 07:13:00,
2013-08-15 02:18:00,57.5,54.3,29.95,ESE,115,0.0,0.0,89,0.00,,FEW,0.00,WeatherDisplay:10.37,2013-08-15 07:18:00,
2013-08-15 02:23:00,57.5,54.3,29.95,ESE,115,1.2,1.2,89,0.00,,FEW,0.00,WeatherDisplay:10.37,2013-08-15 07:23:00,
2013-08-15 02:28:00,57.5,54.3,29.95,ESE,115,0.0,0.0,89,0.00,,FEW,0.00,WeatherDisplay:10.37,2013-08-15 07:28:00,
2013-08-15 02:33:00,57.5,54.3,29.95,ESE,115,0.0,0.0,89,0.00,,FEW,0.00,WeatherDisplay:10.37,2013-08-15 07:33:00,
2013-08-15 02:38:00,57.3,54.1,29.95,ESE,115,0.0,0.0,89,0.00,,FEW,0.00,WeatherDisplay:10.37,2013-08-15 07:38:00,
2013-08-15 02:43:00,57.2,54.0,29.95,ESE,115,1.2,1.2,89,0.00,,FEW,0.00,WeatherDisplay:10.37,2013-08-15 07:43:00,
2013-08-15 02:48:00,57.2,54.0,29.95,ESE,115,3.5,3.5,89,0.00,,FEW,0.00,WeatherDisplay:10.37,2013-08-15 07:48:00,
2013-08-15 02:54:00,57.0,53.8,29.95,ESE,115,0.0,0.0,89,0.00,,FEW,0.00,WeatherDisplay:10.37,2013-08-15 07:54:00,
2013-08-15 02:59:00,56.9,53.7,29.95,ESE,115,1.2,0.0,89,0.00,,FEW,0.00,WeatherDisplay:10.37,2013-08-15 07:59:00,
2013-08-15 03:04:00,56.9,53.7,29.95,ESE,115,0.0,0.0,89,0.00,,FEW,0.00,WeatherDisplay:10.37,2013-08-15 08:04:00,
2013-08-15 03:09:00,56.7,53.5,29.95,ESE,115,0.0,0.0,89,0.00,,FEW,0.00,WeatherDisplay:10.37,2013-08-15 08:09:00,
2013-08-15 03:14:00,56.6,53.4,29.95,ESE,115,0.0,0.0,89,0.00,,FEW,0.00,WeatherDisplay:10.37,2013-08-15 08:14:00,
2013-08-15 03:19:00,56.6,53.4,29.95,ESE,115,1.2,0.0,89,0.00,,FEW,0.00,WeatherDisplay:10.37,2013-08-15 08:19:00,
2013-08-15 03:24:00,56.5,53.3,29.95,ESE,115,0.0,0.0,89,0.00,,FEW,0.00,WeatherDisplay:10.37,2013-08-15 08:24:00,
2013-08-15 03:29:00,56.3,53.1,29.95,ESE,115,0.0,0.0,89,0.00,,FEW,0.00,WeatherDisplay:10.37,2013-08-15 08:29:00,
2013-08-15 03:34:00,56.2,53.0,29.96,ESE,115,0.0,0.0,89,0.00,,FEW,0.00,WeatherDisplay:10.37,2013-08-15 08:34:00,
2013-08-15 03:39:00,56.2,53.0,29.96,ESE,115,0.0,0.0,89,0.00,,FEW,0.00,WeatherDisplay:10.37,2013-08-15 08:39:00,
2013-08-15 03:44:00,56.0,52.8,29.95,ESE,115,1.2,0.0,89,0.00,,FEW,0.00,WeatherDisplay:10.37,2013-08-15 08:44:00,
2013-08-15 03:49:00,56.0,52.8,29.95,ESE,115,0.0,0.0,89,0.00,,FEW,0.00,WeatherDisplay:10.37,2013-08-15 08:49:00,
2013-08-15 03:54:00,55.9,52.7,29.95,ESE,115,0.0,0.0,89,0.00,,FEW,0.00,WeatherDisplay:10.37,2013-08-15 08:54:00,
2013-08-15 03:59:00,55.9,53.0,29.95,ESE,115,0.0,0.0,90,0.00,,FEW,0.00,WeatherDisplay:10.37,2013-08-15 08:59:00,
2013-08-15 04:04:00,55.7,52.8,29.95,ESE,115,0.0,0.0,90,0.00,,FEW,0.00,WeatherDisplay:10.37,2013-08-15 09:04:00,
2013-08-15 04:09:00,55.6,52.7,29.95,ESE,115,0.0,0.0,90,0.00,,FEW,0.00,WeatherDisplay:10.37,2013-08-15 09:09:00,
2013-08-15 04:14:00,55.6,52.7,29.95,ESE,115,0.0,0.0,90,0.00,,FEW,0.00,WeatherDisplay:10.37,2013-08-15 09:14:00,
2013-08-15 04:19:00,55.4,52.5,29.95,ESE,115,0.0,0.0,90,0.00,,FEW,0.00,WeatherDisplay:10.37,2013-08-15 09:19:00,
2013-08-15 04:24:00,55.3,52.4,29.95,ESE,115,0.0,0.0,90,0.00,,FEW,0.00,WeatherDisplay:10.37,2013-08-15 09:24:00,
2013-08-15 04:29:00,55.3,52.4,29.95,ESE,115,0.0,0.0,90,0.00,,FEW,0.00,WeatherDisplay:10.37,2013-08-15 09:29:00,
2013-08-15 04:34:00,55.1,52.2,29.96,ESE,115,0.0,0.0,90,0.00,,FEW,0.00,WeatherDisplay:10.37,2013-08-15 09:34:00,
2013-08-15 04:39:00,55.0,52.1,29.96,ESE,115,0.0,0.0,90,0.00,,FEW,0.00,WeatherDisplay:10.37,2013-08-15 09:39:00,
2013-08-15 04:44:00,55.0,52.4,29.97,ESE,115,0.0,0.0,91,0.00,,FEW,0.00,WeatherDisplay:10.37,2013-08-15 09:44:00,
2013-08-15 04:49:00,55.0,52.4,29.97,ESE,115,0.0,0.0,91,0.00,,FEW,0.00,WeatherDisplay:10.37,2013-08-15 09:49:00,
2013-08-15 04:54:00,54.8,52.2,29.97,ESE,115,0.0,0.0,91,0.00,,FEW,0.00,WeatherDisplay:10.37,2013-08-15 09:54:00,
2013-08-15 04:59:00,54.7,52.1,29.97,ESE,115,0.0,0.0,91,0.00,,FEW,0.00,WeatherDisplay:10.37,2013-08-15 09:59:00,
2013-08-15 05:04:00,54.7,52.1,29.97,ESE,115,0.0,0.0,91,0.00,,FEW,0.00,WeatherDisplay:10.37,2013-08-15 10:04:00,
2013-08-15 05:10:00,54.5,51.9,29.97,ESE,115,0.0,0.0,91,0.00,,FEW,0.00,WeatherDisplay:10.37,2013-08-15 10:10:00,
2013-08-15 05:15:00,54.5,51.9,29.97,ESE,115,0.0,0.0,91,0.00,,FEW,0.00,WeatherDisplay:10.37,2013-08-15 10:15:00,
2013-08-15 05:20:00,54.5,52.2,29.97,ESE,115,0.0,0.0,92,0.00,,FEW,0.00,WeatherDisplay:10.37,2013-08-15 10:20:00,
2013-08-15 05:26:00,54.4,52.1,29.97,ESE,115,0.0,0.0,92,0.00,,FEW,0.00,WeatherDisplay:10.37,2013-08-15 10:26:00,
2013-08-15 05:31:00,54.4,52.1,29.97,ESE,115,0.0,0.0,92,0.00,,FEW,0.00,WeatherDisplay:10.37,2013-08-15 10:31:00,
2013-08-15 05:36:00,54.4,52.1,29.97,ESE,115,0.0,0.0,92,0.00,,FEW,0.00,WeatherDisplay:10.37,2013-08-15 10:36:00,
2013-08-15 05:41:00,54.4,52.1,29.97,ESE,115,0.0,0.0,92,0.00,,FEW,0.00,WeatherDisplay:10.37,2013-08-15 10:41:00,
2013-08-15 05:46:00,54.4,52.1,29.97,ESE,115,0.0,0.0,92,0.00,,FEW,0.00,WeatherDisplay:10.37,2013-08-15 10:46:00,
2013-08-15 05:51:00,54.2,51.9,29.97,ESE,115,0.0,0.0,92,0.00,,FEW,0.00,WeatherDisplay:10.37,2013-08-15 10:51:00,
2013-08-15 05:56:00,54.2,51.9,29.97,ESE,115,0.0,0.0,92,0.00,,FEW,0.00,WeatherDisplay:10.37,2013-08-15 10:56:00,
2013-08-15 06:01:00,54.1,51.8,29.98,ESE,115,0.0,0.0,92,0.00,,FEW,0.00,WeatherDisplay:10.37,2013-08-15 11:01:00,
2013-08-15 06:06:00,54.1,51.8,29.98,ESE,115,0.0,0.0,92,0.00,,FEW,0.00,WeatherDisplay:10.37,2013-08-15 11:06:00,
2013-08-15 06:11:00,53.9,51.6,29.98,ESE,115,0.0,0.0,92,0.00,,FEW,0.00,WeatherDisplay:10.37,2013-08-15 11:11:00,
2013-08-15 06:18:00,53.8,51.5,29.98,ESE,115,0.0,0.0,92,0.00,CLR,FEW,0.00,WeatherDisplay:10.37,2013-08-15 11:18:00,
2013-08-15 06:23:00,53.8,51.5,29.98,ESE,115,0.0,0.0,92,0.00,,FEW,0.00,WeatherDisplay:10.37,2013-08-15 11:23:00,
2013-08-15 06:28:00,53.6,51.6,29.98,ESE,115,0.0,0.0,93,0.00,,FEW,0.00,WeatherDisplay:10.37,2013-08-15 11:28:00,
2013-08-15 06:33:00,53.6,51.6,29.98,ESE,115,0.0,0.0,93,0.00,,FEW,0.00,WeatherDisplay:10.37,2013-08-15 11:33:00,
2013-08-15 06:38:00,53.6,51.6,29.98,ESE,115,0.0,0.0,93,0.00,,FEW,0.00,WeatherDisplay:10.37,2013-08-15 11:38:00,
2013-08-15 06:43:00,53.8,51.8,29.98,ESE,115,0.0,0.0,93,0.00,,FEW,0.00,WeatherDisplay:10.37,2013-08-15 11:43:00,
2013-08-15 06:48:00,53.8,51.8,29.98,ESE,115,0.0,0.0,93,0.00,,FEW,0.00,WeatherDisplay:10.37,2013-08-15 11:48:00,
2013-08-15 06:53:00,53.8,51.8,29.98,ESE,115,0.0,0.0,93,0.00,,FEW,0.00,WeatherDisplay:10.37,2013-08-15 11:53:00,
2013-08-15 06:58:00,53.8,51.8,29.99,ESE,115,0.0,0.0,93,0.00,,FEW,0.00,WeatherDisplay:10.37,2013-08-15 11:58:00,
2013-08-15 07:03:00,53.9,51.9,29.99,ESE,115,0.0,0.0,93,0.00,,FEW,0.00,WeatherDisplay:10.37,2013-08-15 12:03:00,
2013-08-15 07:08:00,53.9,51.9,29.99,ESE,115,0.0,0.0,93,0.00,,FEW,0.00,WeatherDisplay:10.37,2013-08-15 12:08:00,
2013-08-15 07:13:00,54.1,52.4,29.99,ESE,115,0.0,0.0,94,0.00,,FEW,0.00,WeatherDisplay:10.37,2013-08-15 12:13:00,
2013-08-15 07:18:00,54.2,52.5,30.00,ESE,115,0.0,0.0,94,0.00,,FEW,0.00,WeatherDisplay:10.37,2013-08-15 12:18:00,
2013-08-15 07:23:00,54.4,52.7,30.00,ESE,115,0.0,0.0,94,0.00,,FEW,0.00,WeatherDisplay:10.37,2013-08-15 12:23:00,
2013-08-15 07:28:00,54.5,52.8,30.00,ESE,115,1.2,1.2,94,0.00,,FEW,0.00,WeatherDisplay:10.37,2013-08-15 12:28:00,
2013-08-15 07:33:00,54.8,53.1,30.00,ESE,115,1.2,1.2,94,0.00,,FEW,0.00,WeatherDisplay:10.37,2013-08-15 12:33:00,
2013-08-15 07:38:00,55.1,53.4,30.00,ESE,115,0.0,0.0,94,0.00,,FEW,0.00,WeatherDisplay:10.37,2013-08-15 12:38:00,
2013-08-15 07:43:00,55.4,53.7,30.00,ESE,115,0.0,0.0,94,0.00,,FEW,0.00,WeatherDisplay:10.37,2013-08-15 12:43:00,
2013-08-15 07:48:00,55.7,54.0,30.00,ESE,115,0.0,0.0,94,0.00,,FEW,0.00,WeatherDisplay:10.37,2013-08-15 12:48:00,
2013-08-15 07:53:00,56.0,54.3,30.00,ESE,115,0.0,0.0,94,0.00,,FEW,0.00,WeatherDisplay:10.37,2013-08-15 12:53:00,
2013-08-15 07:58:00,56.3,54.6,30.01,ESE,115,1.2,0.0,94,0.00,,FEW,0.00,WeatherDisplay:10.37,2013-08-15 12:58:00,
2013-08-15 08:04:00,56.5,54.8,30.01,ESE,115,0.0,0.0,94,0.00,,FEW,0.00,WeatherDisplay:10.37,2013-08-15 13:04:00,
2013-08-15 08:09:00,56.7,55.0,30.01,ESE,115,0.0,0.0,94,0.00,,FEW,0.00,WeatherDisplay:10.37,2013-08-15 13:09:00,
2013-08-15 08:14:00,57.0,55.3,30.01,ESE,115,0.0,0.0,94,0.00,,FEW,0.00,WeatherDisplay:10.37,2013-08-15 13:14:00,
2013-08-15 08:20:00,57.6,55.6,30.00,ESE,115,0.0,0.0,93,0.00,CLR,FEW,0.00,WeatherDisplay:10.37,2013-08-15 13:20:00,
2013-08-15 08:25:00,58.0,56.0,30.00,ESE,115,0.0,0.0,93,0.00,,FEW,0.00,WeatherDisplay:10.37,2013-08-15 13:25:00,
2013-08-15 08:30:00,58.3,56.0,30.00,ESE,115,0.0,0.0,92,0.00,,FEW,0.00,WeatherDisplay:10.37,2013-08-15 13:30:00,
2013-08-15 08:35:00,58.7,56.4,30.00,ESE,115,0.0,0.1,92,0.00,,FEW,0.00,WeatherDisplay:10.37,2013-08-15 13:35:00,
2013-08-15 08:40:00,59.0,56.4,30.01,ESE,115,0.0,0.0,91,0.00,,FEW,0.00,WeatherDisplay:10.37,2013-08-15 13:40:00,
2013-08-15 08:45:00,59.5,56.6,30.01,ESE,115,0.0,0.0,90,0.00,,FEW,0.00,WeatherDisplay:10.37,2013-08-15 13:45:00,
2013-08-15 08:50:00,59.9,56.6,30.01,ESE,115,0.0,0.0,89,0.00,,FEW,0.00,WeatherDisplay:10.37,2013-08-15 13:50:00,
2013-08-15 08:55:00,61.0,57.4,30.01,ESE,115,0.0,0.0,88,0.00,,FEW,0.00,WeatherDisplay:10.37,2013-08-15 13:55:00,
2013-08-15 09:00:00,62.0,57.1,30.01,ESE,115,0.0,0.0,84,0.00,,FEW,0.00,WeatherDisplay:10.37,2013-08-15 14:00:00,
2013-08-15 09:05:00,63.1,57.2,30.01,ESE,115,0.0,0.1,81,0.00,,FEW,0.00,WeatherDisplay:10.37,2013-08-15 14:05:00,
2013-08-15 09:10:00,64.0,56.3,30.00,ESE,113,3.5,3.5,76,0.00,,FEW,0.00,WeatherDisplay:10.37,2013-08-15 14:10:00,
2013-08-15 09:15:00,65.0,57.2,30.00,ESE,113,1.2,1.2,76,0.00,,FEW,0.00,WeatherDisplay:10.37,2013-08-15 14:15:00,
2013-08-15 09:20:00,65.5,56.6,30.00,ESE,112,1.2,1.2,73,0.00,,FEW,0.00,WeatherDisplay:10.37,2013-08-15 14:20:00,
2013-08-15 09:25:00,66.1,57.2,30.00,ESE,113,0.0,0.0,73,0.00,,FEW,0.00,WeatherDisplay:10.37,2013-08-15 14:25:00,
2013-08-15 09:30:00,66.6,56.1,30.00,ESE,113,1.2,1.2,69,0.00,,FEW,0.00,WeatherDisplay:10.37,2013-08-15 14:30:00,
2013-08-15 09:35:00,66.9,57.2,29.99,ESE,113,3.5,3.5,71,0.00,,FEW,0.00,WeatherDisplay:10.37,2013-08-15 14:35:00,
2013-08-15 09:40:00,67.1,55.8,29.99,ESE,113,1.2,0.0,67,0.00,,FEW,0.00,WeatherDisplay:10.37,2013-08-15 14:40:00,
2013-08-15 09:46:00,67.1,55.4,29.99,SSE,153,2.3,2.3,66,0.00,,FEW,0.00,WeatherDisplay:10.37,2013-08-15 14:46:00,
2013-08-15 09:51:00,66.9,56.0,29.99,SW,232,3.5,3.5,68,0.00,,FEW,0.00,WeatherDisplay:10.37,2013-08-15 14:51:00,
2013-08-15 09:56:00,66.9,55.2,29.99,SW,232,0.0,0.0,66,0.00,,FEW,0.00,WeatherDisplay:10.37,2013-08-15 14:56:00,
2013-08-15 10:01:00,67.3,56.0,30.00,ESE,114,4.0,4.0,67,0.00,,FEW,0.00,WeatherDisplay:10.37,2013-08-15 15:01:00,
2013-08-15 10:06:00,67.9,56.5,29.99,East,89,3.5,3.5,67,0.00,,FEW,0.00,WeatherDisplay:10.37,2013-08-15 15:06:00,
2013-08-15 10:12:00,68.3,54.3,29.99,South,173,2.3,2.3,61,0.00,,FEW,0.00,WeatherDisplay:10.37,2013-08-15 15:12:00,
2013-08-15 10:17:00,68.6,54.2,30.00,South,171,2.3,2.3,60,0.00,,FEW,0.00,WeatherDisplay:10.37,2013-08-15 15:17:00,
2013-08-15 10:23:00,69.1,55.5,30.00,South,171,1.2,0.0,62,0.00,CLR,FEW,0.00,WeatherDisplay:10.37,2013-08-15 15:23:00,
2013-08-15 10:28:00,69.3,54.8,30.00,East,98,0.0,0.1,60,0.00,,FEW,0.00,WeatherDisplay:10.37,2013-08-15 15:28:00,
2013-08-15 10:33:00,69.4,55.4,30.00,ESE,121,1.2,1.2,61,0.00,,FEW,0.00,WeatherDisplay:10.37,2013-08-15 15:33:00,
2013-08-15 10:38:00,69.8,55.7,29.99,ESE,121,0.0,0.0,61,0.00,,FEW,0.00,WeatherDisplay:10.37,2013-08-15 15:38:00,
2013-08-15 10:43:00,70.1,56.0,29.99,ESE,122,2.3,0.0,61,0.00,,FEW,0.00,WeatherDisplay:10.37,2013-08-15 15:43:00,
2013-08-15 10:48:00,70.4,56.3,29.99,ESE,119,2.3,2.3,61,0.00,,FEW,0.00,WeatherDisplay:10.37,2013-08-15 15:48:00,
2013-08-15 10:53:00,70.9,55.9,29.99,ENE,68,3.0,3.0,59,0.00,,FEW,0.00,WeatherDisplay:10.37,2013-08-15 15:53:00,
2013-08-15 10:58:00,71.1,56.5,29.99,SE,125,3.5,3.5,60,0.00,,FEW,0.00,WeatherDisplay:10.37,2013-08-15 15:58:00,
2013-08-15 11:03:00,70.9,55.9,29.98,SE,126,3.5,3.5,59,0.00,,FEW,0.00,WeatherDisplay:10.37,2013-08-15 16:03:00,
2013-08-15 11:08:00,71.1,56.0,29.98,ESE,116,1.2,2.0,59,0.00,,FEW,0.00,WeatherDisplay:10.37,2013-08-15 16:08:00,
2013-08-15 11:13:00,71.3,54.3,29.98,ESE,114,3.5,3.5,55,0.00,,FEW,0.00,WeatherDisplay:10.37,2013-08-15 16:13:00,
2013-08-15 11:19:00,71.5,54.0,29.98,ESE,114,2.3,0.0,54,0.00,,FEW,0.00,WeatherDisplay:10.37,2013-08-15 16:19:00,
2013-08-15 11:24:00,72.0,56.9,29.98,ESE,117,0.0,0.0,59,0.00,,FEW,0.00,WeatherDisplay:10.37,2013-08-15 16:24:00,
2013-08-15 11:29:00,72.0,54.4,29.98,ESE,118,3.5,3.5,54,0.00,,FEW,0.00,WeatherDisplay:10.37,2013-08-15 16:29:00,
2013-08-15 11:34:00,72.1,55.0,29.98,NNW,338,3.5,3.5,55,0.00,,FEW,0.00,WeatherDisplay:10.37,2013-08-15 16:34:00,
2013-08-15 11:39:00,72.3,54.7,29.97,NNW,338,0.0,0.0,54,0.00,,FEW,0.00,WeatherDisplay:10.37,2013-08-15 16:39:00,
2013-08-15 11:45:00,72.7,55.1,29.97,NE,51,5.8,5.8,54,0.00,,FEW,0.00,WeatherDisplay:10.37,2013-08-15 16:45:00,
2013-08-15 11:50:00,72.0,52.9,29.97,ESE,115,5.8,5.8,51,0.00,,FEW,0.00,WeatherDisplay:10.37,2013-08-15 16:50:00,
2013-08-15 11:55:00,71.8,58.5,29.97,ESE,115,0.0,0.0,63,0.00,,FEW,0.00,WeatherDisplay:10.37,2013-08-15 16:55:00,
2013-08-15 12:00:00,72.3,56.2,29.97,ESE,115,1.2,1.2,57,0.00,,FEW,0.00,WeatherDisplay:10.37,2013-08-15 17:00:00,
2013-08-15 12:05:00,72.7,55.1,29.97,ESE,115,1.2,0.0,54,0.00,,FEW,0.00,WeatherDisplay:10.37,2013-08-15 17:05:00,
2013-08-15 12:10:00,73.0,54.9,29.97,East,90,0.0,0.0,53,0.00,,FEW,0.00,WeatherDisplay:10.37,2013-08-15 17:10:00,
2013-08-15 12:15:00,73.7,56.5,29.97,ESE,119,3.0,3.0,55,0.00,,FEW,0.00,WeatherDisplay:10.37,2013-08-15 17:15:00,
2013-08-15 12:20:00,73.7,57.0,29.97,NE,52,4.6,4.6,56,0.00,,FEW,0.00,WeatherDisplay:10.37,2013-08-15 17:20:00,
2013-08-15 12:26:00,73.5,56.3,29.97,NNE,15,1.2,1.2,55,0.00,,FEW,0.00,WeatherDisplay:10.37,2013-08-15 17:26:00,
2013-08-15 12:31:00,73.5,56.8,29.96,NNE,15,3.5,3.5,56,0.00,,FEW,0.00,WeatherDisplay:10.37,2013-08-15 17:31:00,
2013-08-15 12:36:00,73.5,55.8,29.96,ENE,63,3.5,3.5,54,0.00,,FEW,0.00,WeatherDisplay:10.37,2013-08-15 17:36:00,
2013-08-15 12:41:00,73.9,56.2,29.96,NE,49,3.5,3.5,54,0.00,,FEW,0.00,WeatherDisplay:10.37,2013-08-15 17:41:00,
2013-08-15 12:47:00,73.7,54.4,29.96,ESE,110,4.6,4.6,51,0.00,,FEW,0.00,WeatherDisplay:10.37,2013-08-15 17:47:00,
2013-08-15 12:52:00,73.5,55.8,29.96,ENE,67,2.0,2.0,54,0.00,,FEW,0.00,WeatherDisplay:10.37,2013-08-15 17:52:00,
2013-08-15 12:57:00,73.7,53.9,29.95,North,350,3.5,3.5,50,0.00,,FEW,0.00,WeatherDisplay:10.37,2013-08-15 17:57:00,
2013-08-15 13:02:00,74.0,56.3,29.96,NE,46,3.5,3.5,54,0.00,,FEW,0.00,WeatherDisplay:10.37,2013-08-15 18:02:00,
2013-08-15 13:07:00,74.6,57.9,29.95,NE,55,3.5,3.5,56,0.00,,FEW,0.00,WeatherDisplay:10.37,2013-08-15 18:07:00,
2013-08-15 13:12:00,75.3,58.0,29.95,ENE,78,3.5,3.5,55,0.00,,FEW,0.00,WeatherDisplay:10.37,2013-08-15 18:12:00,
2013-08-15 13:17:00,75.4,56.5,29.95,ENE,63,3.5,3.5,52,0.00,,FEW,0.00,WeatherDisplay:10.37,2013-08-15 18:17:00,
2013-08-15 13:22:00,75.3,54.8,29.95,West,279,3.5,3.5,49,0.00,,FEW,0.00,WeatherDisplay:10.37,2013-08-15 18:22:00,
2013-08-15 13:27:00,74.7,55.9,29.95,WNW,283,2.0,2.0,52,0.00,,FEW,0.00,WeatherDisplay:10.37,2013-08-15 18:27:00,
2013-08-15 13:32:00,73.9,56.7,29.95,ESE,115,3.5,3.5,55,0.00,,FEW,0.00,WeatherDisplay:10.37,2013-08-15 18:32:00,
2013-08-15 13:37:00,73.3,59.5,29.95,ESE,115,1.2,1.2,62,0.00,,FEW,0.00,WeatherDisplay:10.37,2013-08-15 18:37:00,
2013-08-15 13:42:00,73.5,57.3,29.94,East,89,3.5,3.5,57,0.00,,FEW,0.00,WeatherDisplay:10.37,2013-08-15 18:42:00,
2013-08-15 13:47:00,74.0,56.3,29.94,ENE,78,1.0,1.0,54,0.00,,FEW,0.00,WeatherDisplay:10.37,2013-08-15 18:47:00,
2013-08-15 13:52:00,74.4,58.2,29.94,ENE,78,3.5,3.5,57,0.00,,FEW,0.00,WeatherDisplay:10.37,2013-08-15 18:52:00,
2013-08-15 13:57:00,74.4,56.2,29.94,ENE,77,3.5,0.0,53,0.00,,FEW,0.00,WeatherDisplay:10.37,2013-08-15 18:57:00,
2013-08-15 14:03:00,74.0,57.8,29.94,ENE,77,1.2,1.2,57,0.00,,FEW,0.00,WeatherDisplay:10.37,2013-08-15 19:03:00,
2013-08-15 14:08:00,74.4,56.7,29.94,ENE,76,3.5,3.5,54,0.00,,FEW,0.00,WeatherDisplay:10.37,2013-08-15 19:08:00,
2013-08-15 14:13:00,74.7,55.9,29.94,East,86,4.6,4.6,52,0.00,,FEW,0.00,WeatherDisplay:10.37,2013-08-15 19:13:00,
2013-08-15 14:18:00,74.6,55.8,29.94,East,82,3.5,3.5,52,0.00,,FEW,0.00,WeatherDisplay:10.37,2013-08-15 19:18:00,
2013-08-15 14:23:00,74.6,55.3,29.94,ESE,113,4.0,4.0,51,0.00,,FEW,0.00,WeatherDisplay:10.37,2013-08-15 19:23:00,
2013-08-15 14:28:00,75.1,56.8,29.94,ENE,78,4.6,4.6,53,0.00,,FEW,0.00,WeatherDisplay:10.37,2013-08-15 19:28:00,
2013-08-15 14:33:00,75.8,58.0,29.94,ENE,76,6.9,6.9,54,0.00,,FEW,0.00,WeatherDisplay:10.37,2013-08-15 19:33:00,
2013-08-15 14:38:00,76.0,54.3,29.94,NNW,341,4.6,4.6,47,0.00,,FEW,0.00,WeatherDisplay:10.37,2013-08-15 19:38:00,
2013-08-15 14:43:00,74.9,57.1,29.94,NNW,348,1.2,1.2,54,0.00,,FEW,0.00,WeatherDisplay:10.37,2013-08-15 19:43:00,
2013-08-15 14:48:00,74.9,53.9,29.94,NNW,347,1.2,1.2,48,0.00,,FEW,0.00,WeatherDisplay:10.37,2013-08-15 19:48:00,
2013-08-15 14:54:00,75.1,55.7,29.93,NE,54,6.9,6.9,51,0.00,,FEW,0.00,WeatherDisplay:10.37,2013-08-15 19:54:00,
2013-08-15 14:59:00,75.3,57.0,29.93,East,98,2.3,2.3,53,0.00,,FEW,0.00,WeatherDisplay:10.37,2013-08-15 19:59:00,
2013-08-15 15:04:00,75.6,57.3,29.93,ENE,57,3.5,3.5,53,0.00,,FEW,0.00,WeatherDisplay:10.37,2013-08-15 20:04:00,
2013-08-15 15:10:00,76.0,54.9,29.93,ESE,103,2.3,0.0,48,0.00,CLR,FEW,0.00,WeatherDisplay:10.37,2013-08-15 20:10:00,
2013-08-15 15:16:00,76.3,54.6,29.93,East,98,1.2,1.2,47,0.00,,FEW,0.00,WeatherDisplay:10.37,2013-08-15 20:16:00,
2013-08-15 15:21:00,76.7,57.7,29.92,NNE,15,3.5,3.5,52,0.00,,FEW,0.00,WeatherDisplay:10.37,2013-08-15 20:21:00,
2013-08-15 15:26:00,77.0,59.1,29.92,NE,42,3.5,3.5,54,0.00,,FEW,0.00,WeatherDisplay:10.37,2013-08-15 20:26:00,
2013-08-15 15:31:00,77.4,56.7,29.92,ENE,77,3.5,3.5,49,0.00,,FEW,0.00,WeatherDisplay:10.37,2013-08-15 20:31:00,
2013-08-15 15:36:00,77.2,56.6,29.92,ENE,75,3.5,3.5,49,0.00,,FEW,0.00,WeatherDisplay:10.37,2013-08-15 20:36:00,
2013-08-15 15:41:00,76.7,56.7,29.92,ENE,74,3.0,3.0,50,0.00,,FEW,0.00,WeatherDisplay:10.37,2013-08-15 20:41:00,
2013-08-15 15:46:00,76.5,60.1,29.92,ENE,71,3.0,3.0,57,0.00,,FEW,0.00,WeatherDisplay:10.37,2013-08-15 20:46:00,
2013-08-15 15:51:00,76.8,57.8,29.92,ENE,78,3.5,3.5,52,0.00,,FEW,0.00,WeatherDisplay:10.37,2013-08-15 20:51:00,
2013-08-15 15:56:00,76.8,56.8,29.92,ENE,75,2.3,2.3,50,0.00,,FEW,0.00,WeatherDisplay:10.37,2013-08-15 20:56:00,
2013-08-15 16:01:00,76.5,55.9,29.92,ENE,75,1.2,0.0,49,0.00,,FEW,0.00,WeatherDisplay:10.37,2013-08-15 21:01:00,
2013-08-15 16:06:00,75.8,59.5,29.92,ENE,75,1.2,1.2,57,0.00,,FEW,0.00,WeatherDisplay:10.37,2013-08-15 21:06:00,
2013-08-15 16:11:00,76.0,54.9,29.92,NNE,33,6.0,6.0,48,0.00,,FEW,0.00,WeatherDisplay:10.37,2013-08-15 21:11:00,
2013-08-15 16:16:00,76.1,56.1,29.91,NNE,20,3.5,3.5,50,0.00,,FEW,0.00,WeatherDisplay:10.37,2013-08-15 21:16:00,
2013-08-15 16:21:00,76.7,56.1,29.91,NNE,32,3.5,3.5,49,0.00,,FEW,0.00,WeatherDisplay:10.37,2013-08-15 21:21:00,
2013-08-15 16:28:00,76.8,55.0,29.91,East,101,3.5,3.5,47,0.00,,FEW,0.00,WeatherDisplay:10.37,2013-08-15 21:28:00,
2013-08-15 16:33:00,76.7,56.7,29.91,East,101,3.5,3.5,50,0.00,,FEW,0.00,WeatherDisplay:10.37,2013-08-15 21:33:00,
2013-08-15 16:38:00,76.5,55.3,29.91,East,101,0.0,0.0,48,0.00,,FEW,0.00,WeatherDisplay:10.37,2013-08-15 21:38:00,
2013-08-15 16:44:00,76.5,54.8,29.91,East,101,2.3,2.3,47,0.00,,FEW,0.00,WeatherDisplay:10.37,2013-08-15 21:44:00,
2013-08-15 16:49:00,76.1,56.7,29.91,East,101,3.5,3.5,51,0.00,,FEW,0.00,WeatherDisplay:10.37,2013-08-15 21:49:00,
2013-08-15 16:54:00,76.3,54.6,29.91,ESE,103,1.2,0.0,47,0.00,,FEW,0.00,WeatherDisplay:10.37,2013-08-15 21:54:00,
2013-08-15 16:59:00,76.7,57.2,29.91,ESE,103,1.2,1.2,51,0.00,,FEW,0.00,WeatherDisplay:10.37,2013-08-15 21:59:00,
2013-08-15 17:04:00,77.4,59.5,29.90,ESE,103,0.0,0.0,54,0.00,,FEW,0.00,WeatherDisplay:10.37,2013-08-15 22:04:00,
2013-08-15 17:09:00,77.7,59.2,29.90,ESE,103,0.0,0.0,53,0.00,,FEW,0.00,WeatherDisplay:10.37,2013-08-15 22:09:00,
2013-08-15 17:14:00,77.7,55.3,29.90,East,98,3.5,3.5,46,0.00,,FEW,0.00,WeatherDisplay:10.37,2013-08-15 22:14:00,
2013-08-15 17:19:00,77.4,57.3,29.90,East,97,2.3,2.3,50,0.00,,FEW,0.00,WeatherDisplay:10.37,2013-08-15 22:19:00,
2013-08-15 17:24:00,77.4,56.7,29.90,East,97,2.0,2.0,49,0.00,,FEW,0.00,WeatherDisplay:10.37,2013-08-15 22:24:00,
2013-08-15 17:29:00,76.8,55.6,29.90,East,98,1.2,1.2,48,0.00,,FEW,0.00,WeatherDisplay:10.37,2013-08-15 22:29:00,
2013-08-15 17:34:00,76.8,57.3,29.90,East,97,2.3,2.3,51,0.00,,FEW,0.00,WeatherDisplay:10.37,2013-08-15 22:34:00,
2013-08-15 17:39:00,77.0,55.8,29.91,East,97,0.0,0.0,48,0.00,,FEW,0.00,WeatherDisplay:10.37,2013-08-15 22:39:00,
2013-08-15 17:44:00,77.4,57.9,29.91,East,97,0.0,0.0,51,0.00,,FEW,0.00,WeatherDisplay:10.37,2013-08-15 22:44:00,
2013-08-15 17:49:00,77.6,56.4,29.90,East,97,1.2,0.0,48,0.00,,FEW,0.00,WeatherDisplay:10.37,2013-08-15 22:49:00,
2013-08-15 17:54:00,77.6,56.9,29.90,East,97,2.0,2.0,49,0.00,,FEW,0.00,WeatherDisplay:10.37,2013-08-15 22:54:00,
2013-08-15 17:59:00,76.7,57.2,29.90,East,97,0.0,0.0,51,0.00,,FEW,0.00,WeatherDisplay:10.37,2013-08-15 22:59:00,
2013-08-15 18:04:00,76.5,58.1,29.90,East,97,1.2,1.2,53,0.00,,FEW,0.00,WeatherDisplay:10.37,2013-08-15 23:04:00,
2013-08-15 18:09:00,76.1,57.7,29.90,East,97,0.0,0.0,53,0.00,,FEW,0.00,WeatherDisplay:10.37,2013-08-15 23:09:00,
2013-08-15 18:14:00,76.0,58.2,29.90,East,97,0.0,0.0,54,0.00,,FEW,0.00,WeatherDisplay:10.37,2013-08-15 23:14:00,
2013-08-15 18:19:00,76.0,57.1,29.90,East,97,1.2,1.2,52,0.00,,FEW,0.00,WeatherDisplay:10.37,2013-08-15 23:19:00,
2013-08-15 18:25:00,75.3,58.0,29.90,East,97,0.0,0.0,55,0.00,,FEW,0.00,WeatherDisplay:10.37,2013-08-15 23:25:00,
2013-08-15 18:31:00,74.7,57.5,29.90,East,97,0.0,0.0,55,0.00,,FEW,0.00,WeatherDisplay:10.37,2013-08-15 23:31:00,
2013-08-15 18:36:00,74.4,58.2,29.90,East,97,0.0,0.0,57,0.00,,FEW,0.00,WeatherDisplay:10.37,2013-08-15 23:36:00,
2013-08-15 18:41:00,74.0,59.2,29.90,East,97,0.0,0.0,60,0.00,,FEW,0.00,WeatherDisplay:10.37,2013-08-15 23:41:00,
2013-08-15 18:46:00,73.5,58.8,29.90,East,97,1.2,1.2,60,0.00,,FEW,0.00,WeatherDisplay:10.37,2013-08-15 23:46:00,
2013-08-15 18:51:00,73.0,58.8,29.90,East,97,0.0,0.0,61,0.00,,FEW,0.00,WeatherDisplay:10.37,2013-08-15 23:51:00,
2013-08-15 18:56:00,72.5,58.7,29.89,East,97,0.0,0.0,62,0.00,,FEW,0.00,WeatherDisplay:10.37,2013-08-15 23:56:00,
2013-08-15 19:01:00,72.1,59.2,29.89,East,97,0.0,0.0,64,0.00,,FEW,0.00,WeatherDisplay:10.37,2013-08-16 00:01:00,
2013-08-15 19:06:00,71.8,59.4,29.90,East,97,0.0,0.0,65,0.00,,FEW,0.00,WeatherDisplay:10.37,2013-08-16 00:06:00,
2013-08-15 19:11:00,71.3,59.4,29.90,East,97,0.0,0.0,66,0.00,,FEW,0.00,WeatherDisplay:10.37,2013-08-16 00:11:00,
2013-08-15 19:16:00,70.6,59.5,29.90,East,97,0.0,0.0,68,0.00,,FEW,0.00,WeatherDisplay:10.37,2013-08-16 00:16:00,
2013-08-15 19:21:00,70.1,59.5,29.90,East,97,0.0,0.0,69,0.00,,FEW,0.00,WeatherDisplay:10.37,2013-08-16 00:21:00,
2013-08-15 19:26:00,69.6,59.4,29.90,East,97,0.0,0.0,70,0.00,,FEW,0.00,WeatherDisplay:10.37,2013-08-16 00:26:00,
2013-08-15 19:31:00,69.3,59.1,29.90,East,97,0.0,0.0,70,0.00,,FEW,0.00,WeatherDisplay:10.37,2013-08-16 00:31:00,
2013-08-15 19:36:00,68.9,59.5,29.90,East,97,0.0,0.0,72,0.00,,FEW,0.00,WeatherDisplay:10.37,2013-08-16 00:36:00,
2013-08-15 19:42:00,68.4,59.8,29.90,East,97,0.0,0.0,74,0.00,,FEW,0.00,WeatherDisplay:10.37,2013-08-16 00:42:00,
2013-08-15 19:47:00,67.9,59.3,29.90,East,97,0.0,0.0,74,0.00,,FEW,0.00,WeatherDisplay:10.37,2013-08-16 00:47:00,
2013-08-15 19:52:00,67.4,59.2,29.91,East,97,0.0,0.0,75,0.00,,FEW,0.00,WeatherDisplay:10.37,2013-08-16 00:52:00,
2013-08-15 19:57:00,66.9,59.1,29.91,East,97,0.0,0.0,76,0.00,,FEW,0.00,WeatherDisplay:10.37,2013-08-16 00:57:00,
2013-08-15 20:02:00,66.4,59.0,29.91,East,97,0.0,0.0,77,0.00,,FEW,0.00,WeatherDisplay:10.37,2013-08-16 01:02:00,
2013-08-15 20:07:00,66.0,58.9,29.91,East,97,0.0,0.0,78,0.00,,FEW,0.00,WeatherDisplay:10.37,2013-08-16 01:07:00,
2013-08-15 20:12:00,65.6,58.2,29.90,East,97,0.0,0.0,77,0.00,,FEW,0.00,WeatherDisplay:10.37,2013-08-16 01:12:00,
2013-08-15 20:17:00,65.3,58.6,29.91,East,97,0.0,0.0,79,0.00,,FEW,0.00,WeatherDisplay:10.37,2013-08-16 01:17:00,
2013-08-15 20:22:00,65.0,58.7,29.91,East,97,0.0,0.0,80,0.00,,FEW,0.00,WeatherDisplay:10.37,2013-08-16 01:22:00,
2013-08-15 20:27:00,64.7,58.7,29.92,East,97,0.0,0.0,81,0.00,,FEW,0.00,WeatherDisplay:10.37,2013-08-16 01:27:00,
2013-08-15 20:32:00,64.3,58.0,29.91,East,97,0.0,0.0,80,0.00,,FEW,0.00,WeatherDisplay:10.37,2013-08-16 01:32:00,
2013-08-15 20:37:00,64.0,57.7,29.91,East,97,0.0,0.0,80,0.00,,FEW,0.00,WeatherDisplay:10.37,2013-08-16 01:37:00,
2013-08-15 20:42:00,63.9,57.6,29.91,East,97,0.0,0.0,80,0.00,,FEW,0.00,WeatherDisplay:10.37,2013-08-16 01:42:00,
2013-08-15 20:48:00,63.5,57.6,29.91,East,97,0.0,0.0,81,0.00,,FEW,0.00,WeatherDisplay:10.37,2013-08-16 01:48:00,
2013-08-15 20:53:00,63.2,57.3,29.92,East,97,0.0,0.0,81,0.00,,FEW,0.00,WeatherDisplay:10.37,2013-08-16 01:53:00,
2013-08-15 20:58:00,63.1,56.8,29.92,East,97,0.0,0.0,80,0.00,,FEW,0.00,WeatherDisplay:10.37,2013-08-16 01:58:00,
2013-08-15 21:03:00,62.7,56.8,29.91,East,97,0.0,0.0,81,0.00,,FEW,0.00,WeatherDisplay:10.37,2013-08-16 02:03:00,
2013-08-15 21:08:00,62.6,56.7,29.91,East,97,0.0,0.0,81,0.00,,FEW,0.00,WeatherDisplay:10.37,2013-08-16 02:08:00,
2013-08-15 21:13:00,62.4,56.1,29.91,East,97,0.0,0.0,80,0.00,,FEW,0.00,WeatherDisplay:10.37,2013-08-16 02:13:00,
2013-08-15 21:18:00,62.3,56.0,29.91,East,97,0.0,0.0,80,0.00,,FEW,0.00,WeatherDisplay:10.37,2013-08-16 02:18:00,
2013-08-15 21:23:00,62.3,56.0,29.92,East,97,1.2,0.0,80,0.00,,FEW,0.00,WeatherDisplay:10.37,2013-08-16 02:23:00,
2013-08-15 21:28:00,62.3,56.4,29.93,East,97,0.0,0.0,81,0.00,,FEW,0.00,WeatherDisplay:10.37,2013-08-16 02:28:00,
2013-08-15 21:33:00,62.3,56.4,29.93,East,97,0.0,0.0,81,0.00,,FEW,0.00,WeatherDisplay:10.37,2013-08-16 02:33:00,
2013-08-15 21:34:00,62.3,56.4,29.93,East,97,0.0,0.0,81,0.00,,FEW,0.00,WeatherDisplay:10.37,2013-08-16 02:34:00,
2013-08-15 21:38:00,62.3,56.4,29.93,East,97,0.0,0.0,81,0.00,,FEW,0.00,WeatherDisplay:10.37,2013-08-16 02:38:00,
2013-08-15 21:43:00,62.3,56.4,29.93,East,97,0.0,0.0,81,0.00,,FEW,0.00,WeatherDisplay:10.37,2013-08-16 02:43:00,
2013-08-15 22:32:00,62.3,56.4,29.93,East,97,0.0,0.0,81,0.00,,FEW,0.00,WeatherDisplay:10.37,2013-08-16 03:32:00,
2013-08-15 22:37:00,62.3,56.4,29.93,East,97,0.0,0.0,81,0.00,,FEW,0.00,WeatherDisplay:10.37,2013-08-16 03:37:00,